Aérodrome :
LOGIN :

S'inscrire | Disclaimer

   EN    FR    IT 

 










Légende :    VFR   VFR Marginal   IFR   IFR Intensif   IFR Très Intensif
Visi : 
Plafond : 
>= 8 km
>= 3000ft
5 à 8 km
1000 à 3000 ft
1500m à 5 km
500 à 1000 ft
800 à 1500m
200 à 500 ft
< 800m
< 200 ft
Symboles :   Orages  Brouillard  Fortes neiges  Fortes précipitations  Vent > 20 kt
SIGMETs :   Divers  Orages  Givrage  Turbulence  Onde Orograph.  Cendres Volcan.






- Altitude de l'aérodrome : 436 ft
- Code IATA : ANG


LFBU - Angoulême Brie Champniers

DERNIER METAR :
  • 230230Z AUTO 10004KT 080V140 CAVOK 12/05 Q1020

METARs EXPIRÉS :
  • 230200Z AUTO 09005KT CAVOK 11/05 Q1020
  • 230130Z AUTO 08004KT CAVOK 12/05 Q1020
  • 230100Z AUTO 10005KT 060V140 CAVOK 13/05 Q1020
  • 230030Z AUTO 09006KT 060V120 CAVOK 13/05 Q1020
  • 230000Z AUTO 09007KT CAVOK 14/05 Q1019

TAF TAF LFBU
Valide du 22 à 18h jusqu'au 23 à 18h UTC


221700Z 2218/2318 05010KT CAVOK



MET'MAP, la Météo Aéronautique d'un coup d'oeil ! - Copyright ORBIFLY Décembre 2007 - Disclaimer

ORBIFLY MET'MAP TEAM :

Programmation & Développement : Alexandra Zaïnal
Sur une idée originale de : Baudouin d'Aumeries
Assistance à la programmation : Marc-Olivier Méhu
Soutien technique & logistique : Manuel Goepfert

Contact : metmap@orbifly.com




SOURCES & CREDITS :

   NOAA